[[{"header":{"parameterUnit":"m.s-1","parameterCategory":1,"la1":30.2991,"la2":30.254,"lo1":-89.0895,"lo2":-89.0444,"dx":0.0017,"dy":0.0017,"nx":28,"ny":28,"refTime":"2022-12-03T09:00:00:Z","depth":0,"parameterNumber":2,"parameterNumberName":"U-component_of_WINDS"},"data":[0,0,0,0,0,0,0,0,0,0,0,0,0,0,0,0,0,0,0,0,0,0,0,0,0,0,0,0,0,0,0,0,0,0,0,0,0,0,0,0,0,0,0,0,0,0,0,0,0,0,0,0,0,0,0,0,0,0,0.765,0.765,0,0.7676,0.7676,0.7676,0.7652,0.7651,0.765,0.7649,0.768,0.7681,0.7683,0,0,0,0,0,0,0,0,0,0,0,0,0,0.7581,0.7583,0.7649,0.765,0.765,0.7676,0.7676,0.7676,0.7652,0.7651,0.765,0.7649,0.7679,0.7681,0.7683,0,0,0,0,0,0,0,0,0,0,0,0,0,0.761,0.7583,0.7649,0.7641,0.7641,0.7676,0.7676,0.7676,0.7652,0.7651,0.765,0.7648,0.7678,0.7681,0.7683,0.7729,0,0,0.7691,0.7693,0,0,0,0,0,0,0,0,0.7608,0.7612,0.7642,0.7642,0.7641,0.7659,0.7663,0.7694,0.7653,0.7648,0.7649,0.7647,0.7674,0.7677,0.7685,0.7731,0.7732,0.7692,0.7693,0.7694,0.7695,0,0,0,0,0,0,0,0.7606,0.7611,0.766,0.7642,0.7642,0.7637,0.7639,0.7669,0.7669,0.7648,0.7647,0.765,0.7674,0.7683,0.7686,0.7732,0.7692,0.7694,0.7695,0.7697,0.7816,0.7817,0,0,0,0,0,0,0.7605,0.7609,0.7659,0.7661,0.7621,0.7639,0.7642,0.7655,0.7669,0.7669,0.7651,0.7649,0.7679,0.7683,0.7687,0.7741,0.7694,0.7697,0.7698,0.7814,0.7816,0.7818,0,0,0,0,0,0,0.7603,0.7609,0.7658,0.7635,0.764,0.7642,0.7657,0.7656,0.7665,0.7671,0.7671,0.766,0.7678,0.7683,0.7718,0.7741,0.7698,0.77,0.7812,0.7815,0.7817,0.7849,0,0,0,0,0,0,0.7601,0.7609,0.7626,0.7635,0.7642,0.7688,0.7658,0.7658,0.7669,0.7666,0.7679,0.768,0.7677,0.7715,0.7721,0.7744,0.7702,0.781,0.7813,0.7816,0.7846,0.7852,0.7857,0,0,0,0,0,0.7599,0.7634,0.7627,0.7633,0.7662,0.769,0.7694,0.7688,0.7671,0.7688,0.7692,0.768,0.7738,0.7718,0.7725,0.775,0.7809,0.7813,0.7816,0.7843,0.7851,0.7857,0,0,0,0,0,0,0.7629,0.7636,0.7627,0.7666,0.7677,0.7685,0.7707,0.7697,0.7714,0.7711,0.7705,0.7708,0.7745,0.7751,0.7729,0.7794,0.7771,0.7776,0.7789,0.7796,0.7802,0.78,0.7704,0,0,0,0,0,0.764,0.766,0.7666,0.77,0.7706,0.7705,0.7717,0.7712,0.7724,0.7729,0.7735,0.7748,0.7769,0.7783,0.7803,0.7847,0.7849,0.7867,0.7873,0.7877,0.7882,0.7905,0.7913,0.783,0.783,0.783,0,0,0.7663,0.7669,0.7683,0.7706,0.7714,0.7736,0.771,0.7734,0.7751,0.7733,0.7766,0.7771,0.7785,0.7825,0.7842,0.7831,0.7905,0.7882,0.7886,0.7888,0.7909,0.7917,0.7924,0.7832,0.7832,0.7831,0,0,0.7717,0.7723,0.7752,0.7761,0.7773,0.7772,0.7779,0.7789,0.7791,0.7823,0.781,0.7831,0.7867,0.7877,0.7887,0.7944,0.7933,0.7951,0.7981,0.8004,0.801,0.8016,0.8036,0.8043,0.7955,0.7955,0.7955,0,0.7744,0.7776,0.7769,0.7794,0.7804,0.7788,0.7818,0.7826,0.7845,0.7853,0.7839,0.7884,0.7893,0.7934,0.7947,0.7956,0.7964,0.7949,0.801,0.8015,0.8021,0.8039,0.8047,0.7957,0.7957,0.7957,0.7957,0,0.7809,0.7831,0.7853,0.787,0.7883,0.7911,0.7908,0.7922,0.7916,0.7918,0.7951,0.796,0.7981,0.7991,0.7986,0.8032,0.8024,0.801,0.7986,0.8031,0.8048,0.8055,0.796,0.7959,0.7959,0.7958,0,0,0.7882,0.7894,0.7902,0.7909,0.7921,0.7938,0.7965,0.7984,0.7996,0.801,0.8032,0.8063,0.805,0.8062,0.8058,0.8077,0.8121,0.8061,0.8061,0.8071,0.8171,0.8181,0.8189,0.8114,0.8115,0.8116,0.817,0,0.7935,0.798,0.7974,0.8018,0.8038,0.8023,0.8046,0.8056,0.8058,0.8077,0.8079,0.8101,0.8082,0.8089,0.8108,0.8112,0.8141,0.8108,0.8135,0.8136,0.8131,0.8198,0.8209,0.8258,0.8177,0.8178,0.8179,0,0.8003,0.8017,0.8062,0.807,0.8079,0.81,0.8116,0.8134,0.8145,0.8145,0.8158,0.815,0.8177,0.8153,0.8191,0.8169,0.818,0.8183,0.8185,0.8187,0.816,0.8202,0.8274,0.8281,0.8189,0.8189,0.8188,0,0.8051,0.8081,0.8112,0.8119,0.8129,0.8144,0.8149,0.8159,0.8171,0.8186,0.8194,0.8212,0.8223,0.8238,0.8235,0.8218,0.8274,0.825,0.8275,0.8275,0.8287,0.8286,0.8362,0.8295,0.8295,0.8295,0.8295,0,0.811,0.8138,0.8133,0.8152,0.8183,0.8177,0.8208,0.8212,0.8221,0.824,0.8229,0.8248,0.8244,0.8263,0.8262,0.8293,0.8298,0.8299,0.8298,0.83,0.83,0.8307,0.8303,0.8297,0.8296,0.8296,0.8296,0,0.8169,0.8166,0.8199,0.8206,0.8208,0.8231,0.8237,0.8255,0.8255,0.8281,0.8286,0.8288,0.831,0.8309,0.8334,0.8333,0.8371,0.8367,0.8367,0.8366,0.8391,0.8388,0.8473,0.8484,0.8411,0.8412,0.8412,0,0.8206,0.8227,0.8236,0.8248,0.8254,0.8273,0.8284,0.8279,0.8292,0.8306,0.8322,0.8343,0.8359,0.8395,0.8399,0.8418,0.8414,0.8442,0.8416,0.8417,0.8413,0.8411,0.8413,0.8447,0.8448,0.8448,0.8449,0,0.8273,0.8271,0.8287,0.8303,0.8317,0.833,0.8341,0.8352,0.8348,0.8363,0.8384,0.8396,0.8421,0.8442,0.846,0.8467,0.8457,0.8457,0.8464,0.8465,0.8463,0.8464,0.838,0.8455,0.8454,0.8454,0.8453,0.8453,0.8322,0.8339,0.8348,0.8367,0.8374,0.8385,0.8402,0.8405,0.8422,0.8441,0.8437,0.8461,0.8472,0.8495,0.8503,0.8523,0.8513,0.8523,0.8525,0.8527,0.853,0.8461,0.8526,0.8526,0.8526,0.8526,0.8526,0,0.8387,0.8392,0.8409,0.8425,0.844,0.8428,0.8441,0.8454,0.8475,0.8485,0.8501,0.8525,0.8545,0.855,0.8569,0.8584,0.858,0.8589,0.8587,0.8589,0.8538,0.853,0.8591,0.8591,0.8591,0.8591,0.8591,0.8591,0.8423,0.8452,0.8451,0.8484,0.8488,0.8511,0.8518,0.8529,0.8537,0.8564,0.858,0.8583,0.8591,0.8611,0.8628,0.8629,0.8637,0.8647,0.8647,0.8599,0.8592,0.8586,0.8578,0.8649,0.8649,0.8696,0.8696,0.8697]},{"header":{"parameterUnit":"m.s-1","parameterCategory":1,"la1":30.2991,"la2":30.254,"lo1":-89.0895,"lo2":-89.0444,"dx":0.0017,"dy":0.0017,"nx":28,"ny":28,"refTime":"2022-12-03T09:00:00:Z","depth":0,"parameterNumber":3,"parameterNumberName":"V-component_of_WINDS"},"data":[0,0,0,0,0,0,0,0,0,0,0,0,0,0,0,0,0,0,0,0,0,0,0,0,0,0,0,0,0,0,0,0,0,0,0,0,0,0,0,0,0,0,0,0,0,0,0,0,0,0,0,0,0,0,0,0,0,0,0.4341,0.4341,0,0.4305,0.4305,0.4304,0.4284,0.4284,0.4283,0.4283,0.4243,0.4242,0.4241,0,0,0,0,0,0,0,0,0,0,0,0,0,0.4389,0.4388,0.4341,0.4341,0.434,0.4305,0.4305,0.4304,0.4284,0.4283,0.4283,0.4283,0.4243,0.4242,0.4241,0,0,0,0,0,0,0,0,0,0,0,0,0,0.4362,0.4388,0.4341,0.4326,0.4324,0.4305,0.4305,0.4304,0.4284,0.4283,0.4283,0.4283,0.4244,0.4242,0.4241,0.4233,0,0,0.4236,0.4235,0,0,0,0,0,0,0,0,0.4363,0.436,0.4329,0.4327,0.4325,0.4299,0.4307,0.428,0.4284,0.4299,0.4283,0.4283,0.4261,0.4258,0.4252,0.4231,0.423,0.4236,0.4235,0.4234,0.4234,0,0,0,0,0,0,0,0.4365,0.4362,0.4327,0.4328,0.4326,0.432,0.4316,0.4301,0.4281,0.4298,0.4296,0.4292,0.426,0.4253,0.4251,0.4229,0.4236,0.4235,0.4234,0.4233,0.4199,0.4199,0,0,0,0,0,0,0.437,0.4363,0.4328,0.4326,0.4345,0.4319,0.4314,0.4307,0.4281,0.4277,0.4292,0.4291,0.4256,0.4252,0.4249,0.4238,0.4234,0.4233,0.4232,0.4199,0.4199,0.4199,0,0,0,0,0,0,0.4371,0.4367,0.4329,0.4344,0.4339,0.4318,0.431,0.4307,0.43,0.4277,0.4273,0.4289,0.4256,0.4251,0.4237,0.4236,0.4232,0.4231,0.4199,0.4199,0.4199,0.4216,0,0,0,0,0,0,0.4373,0.4368,0.4366,0.4344,0.4338,0.432,0.431,0.4306,0.4297,0.4296,0.4273,0.4269,0.4255,0.424,0.4236,0.4234,0.423,0.4199,0.4199,0.4199,0.4216,0.4217,0.4218,0,0,0,0,0,0.4375,0.4372,0.4366,0.4362,0.4335,0.432,0.4316,0.4301,0.4297,0.4295,0.428,0.427,0.4237,0.4238,0.4234,0.4232,0.4199,0.4199,0.4199,0.4215,0.4217,0.4218,0,0,0,0,0,0,0.4393,0.4368,0.4362,0.4352,0.4338,0.4316,0.4312,0.4303,0.4289,0.4288,0.4269,0.4264,0.4252,0.424,0.4242,0.4223,0.4217,0.4216,0.4231,0.4232,0.4233,0.4236,0.4228,0,0,0,0,0,0.4396,0.4386,0.4365,0.4358,0.4352,0.4333,0.4326,0.4315,0.43,0.4293,0.4278,0.4262,0.4248,0.4239,0.4225,0.4214,0.4208,0.421,0.4211,0.4212,0.4212,0.4204,0.4204,0.4199,0.4199,0.4199,0,0,0.4401,0.4387,0.4382,0.4361,0.4349,0.4339,0.4328,0.4318,0.4309,0.4291,0.4278,0.4266,0.4246,0.4234,0.4227,0.4224,0.4212,0.4212,0.4213,0.4212,0.4204,0.4204,0.4205,0.4199,0.4199,0.4199,0,0,0.4406,0.4395,0.4388,0.4376,0.4358,0.4346,0.4344,0.4323,0.4315,0.4301,0.4287,0.4276,0.4253,0.424,0.423,0.4229,0.4219,0.4225,0.423,0.4223,0.4223,0.4223,0.4222,0.4222,0.4224,0.4224,0.4224,0,0.4416,0.44,0.4385,0.4375,0.4366,0.435,0.4342,0.4331,0.4309,0.4303,0.4299,0.4269,0.4255,0.4239,0.4238,0.4231,0.4227,0.4227,0.4225,0.4225,0.4225,0.4223,0.4223,0.4225,0.4225,0.4225,0.4225,0,0.4412,0.4401,0.4397,0.4378,0.4368,0.4359,0.4341,0.4333,0.4323,0.4311,0.4296,0.4278,0.426,0.4255,0.4245,0.4237,0.4235,0.4229,0.4222,0.4226,0.4225,0.4224,0.4226,0.4226,0.4226,0.4225,0,0,0.4428,0.44,0.4398,0.4389,0.4368,0.4359,0.4348,0.4331,0.4324,0.4309,0.4299,0.4279,0.4273,0.4262,0.425,0.4243,0.4243,0.4237,0.4236,0.4238,0.4231,0.4236,0.4236,0.4236,0.4236,0.4235,0.4233,0,0.443,0.4412,0.4397,0.4384,0.4373,0.4358,0.4348,0.4334,0.4321,0.4309,0.4295,0.4281,0.4274,0.4267,0.426,0.4244,0.4241,0.4244,0.4225,0.4225,0.423,0.4236,0.4241,0.424,0.4232,0.4232,0.4232,0,0.443,0.4416,0.4402,0.4382,0.4376,0.4369,0.4352,0.4341,0.4323,0.4314,0.4302,0.4289,0.4276,0.4271,0.4252,0.4254,0.4245,0.4236,0.4236,0.4233,0.4229,0.4233,0.4239,0.4238,0.4231,0.4231,0.4231,0,0.4442,0.442,0.4409,0.4401,0.4377,0.4372,0.4361,0.4344,0.4334,0.4318,0.4312,0.4295,0.4285,0.4271,0.4254,0.4252,0.4236,0.423,0.4227,0.4228,0.4225,0.4225,0.4229,0.4219,0.4219,0.4219,0.4219,0,0.4446,0.4438,0.4414,0.4408,0.4397,0.438,0.437,0.4358,0.4342,0.4332,0.4317,0.4307,0.4284,0.4271,0.4257,0.4243,0.4239,0.423,0.4227,0.4232,0.4233,0.4226,0.4225,0.4219,0.4219,0.4219,0.4219,0,0.4458,0.4443,0.4429,0.4407,0.4401,0.4395,0.4375,0.4367,0.4354,0.4341,0.4336,0.4315,0.4298,0.428,0.4257,0.4248,0.4234,0.4229,0.424,0.4238,0.4237,0.4237,0.4236,0.4234,0.4226,0.4226,0.4227,0,0.4462,0.4455,0.4433,0.4425,0.4415,0.4403,0.4393,0.4375,0.4366,0.4344,0.4338,0.4321,0.4306,0.4281,0.4262,0.4244,0.4238,0.4239,0.4235,0.424,0.4238,0.4238,0.4237,0.424,0.424,0.424,0.4241,0,0.4469,0.4461,0.4449,0.4433,0.4422,0.4409,0.4395,0.4389,0.4368,0.4357,0.4341,0.433,0.4306,0.4289,0.4269,0.4256,0.4244,0.4242,0.424,0.4245,0.4252,0.4248,0.4243,0.4242,0.4242,0.4242,0.4242,0.4242,0.4477,0.447,0.4453,0.4439,0.4427,0.4414,0.4405,0.439,0.4377,0.4358,0.4347,0.4331,0.4312,0.4283,0.4271,0.4257,0.4253,0.4251,0.425,0.425,0.4251,0.4255,0.4253,0.4253,0.4253,0.4253,0.4253,0,0.4483,0.4471,0.4459,0.444,0.4428,0.4419,0.4403,0.4394,0.438,0.4364,0.4349,0.433,0.4313,0.4293,0.4274,0.4266,0.426,0.4261,0.4262,0.4259,0.4256,0.4259,0.4267,0.4267,0.4267,0.4267,0.4267,0.4267,0.4485,0.4473,0.4463,0.4444,0.4432,0.4417,0.4408,0.4395,0.4382,0.4361,0.4347,0.4335,0.4317,0.4296,0.4279,0.4274,0.4267,0.427,0.4263,0.426,0.4259,0.4258,0.4261,0.4269,0.4269,0.4267,0.4267,0.4267]}]]